Location: El Bakhil
(32.7726°N, 5.5387°W)
Time: 04:08:12
(UTC+00:00)

Hubble Space Telescope - Visible Passes

Search period start: 02 October 2022 00:00
Search period end: 12 October 2022 00:00
Orbit: 531 x 535 km, 28.5° (Epoch: 01 October)

Date Brightness Start Highest point End Pass type
(mag) Time Alt. Az. Time Alt. Az. Time Alt. Az.
02 Oct 1.8 18:41:56 10° WSW 18:45:43 37° S 18:49:29 10° ESE visible
02 Oct 3.4 20:23:42 10° WSW 20:24:44 14° SW 20:24:44 14° SW visible
03 Oct 2.0 18:29:43 10° WSW 18:33:25 33° SSW 18:37:07 10° SE visible
03 Oct 3.3 20:11:53 10° SW 20:13:16 13° SW 20:13:16 13° SW visible
04 Oct 3.4 20:00:27 10° SW 20:01:38 11° SSW 20:01:51 11° SSW visible
